Location: Kimberly
(42.5380°N, 114.3640°W)
Time: 10:31:07
(UTC-06:00)

X-37B - Pass Details

Date: 06 August 2021
Orbit: 381 x 393 km, 45.0° (Epoch: 29 August)

Event Time Altitude Azimuth Distance (km) Brightness Sun altitude
Exits shadow 05:10:31 19° 281° (W) 977 2.2 -14.1°
Maximum altitude 05:12:31 54° 354° (N) 470 1.1 -13.8°
Drops below altitude 10° 05:15:36 10° 73° (ENE) 1,395 4.6 -13.4°
Sets 05:17:42 0° 78° (ENE) 2,249 5.7 -13.1°
